Time,TemperatureF,DewpointF,PressureIn,WindDirection,WindDirectionDegrees,WindSpeedMPH,WindSpeedGustMPH,Humidity,HourlyPrecipIn,Conditions,Clouds,dailyrainin,SoftwareType,DateUTC
2013-04-07 00:10:00,44.8,25.0,30.21,South,182,5.0,8.0,47,0.00,,,0.00,weatherlink.com 1.10,2013-04-07 04:10:00,
2013-04-07 00:25:00,44.6,26.0,30.20,South,178,4.0,7.0,48,0.00,,,0.00,weatherlink.com 1.10,2013-04-07 04:25:00,
2013-04-07 00:40:00,44.3,26.0,30.20,South,178,3.0,6.0,49,0.00,,,0.00,weatherlink.com 1.10,2013-04-07 04:40:00,
2013-04-07 00:55:00,44.4,27.0,30.19,South,178,2.0,8.0,51,0.00,,,0.00,weatherlink.com 1.10,2013-04-07 04:55:00,
2013-04-07 01:10:00,44.2,27.0,30.19,SSW,192,2.0,9.0,52,0.00,,,0.00,weatherlink.com 1.10,2013-04-07 05:10:00,
2013-04-07 01:25:00,44.1,28.0,30.19,South,182,2.0,5.0,54,0.00,,,0.00,weatherlink.com 1.10,2013-04-07 05:25:00,
2013-04-07 01:40:00,44.1,28.0,30.19,South,185,3.0,5.0,54,0.00,,,0.00,weatherlink.com 1.10,2013-04-07 05:40:00,
2013-04-07 01:55:00,44.1,29.0,30.18,SSE,165,1.0,5.0,55,0.00,,,0.00,weatherlink.com 1.10,2013-04-07 05:55:00,
2013-04-07 04:03:00,43.3,30.0,30.16,South,174,3.0,7.0,61,0.00,,,0.00,weatherlink.com 1.10,2013-04-07 08:03:00,
2013-04-07 04:41:00,42.7,30.0,30.15,South,177,3.0,7.0,62,0.00,,,0.00,weatherlink.com 1.10,2013-04-07 08:41:00,
2013-04-07 04:56:00,42.1,30.0,30.15,SSE,159,2.0,4.0,63,0.00,,,0.00,weatherlink.com 1.10,2013-04-07 08:56:00,
2013-04-07 05:11:00,41.5,30.0,30.15,South,171,3.0,4.0,64,0.00,,,0.00,weatherlink.com 1.10,2013-04-07 09:11:00,
2013-04-07 05:27:00,40.9,30.0,30.15,South,173,1.0,4.0,66,0.00,,,0.00,weatherlink.com 1.10,2013-04-07 09:27:00,
2013-04-07 05:57:00,39.7,30.0,30.15,South,171,2.0,3.0,69,0.00,,,0.00,weatherlink.com 1.10,2013-04-07 09:57:00,
2013-04-07 06:12:00,38.9,30.0,30.15,South,171,3.0,3.0,71,0.00,,,0.00,weatherlink.com 1.10,2013-04-07 10:12:00,
2013-04-07 06:27:00,38.4,30.0,30.15,South,171,1.0,3.0,72,0.00,,,0.00,weatherlink.com 1.10,2013-04-07 10:27:00,
2013-04-07 06:42:00,37.8,30.0,30.15,South,171,0.0,3.0,74,0.00,,,0.00,weatherlink.com 1.10,2013-04-07 10:42:00,
2013-04-07 06:57:00,37.5,30.0,30.15,South,171,1.0,2.0,75,0.00,,,0.00,weatherlink.com 1.10,2013-04-07 10:57:00,
2013-04-07 07:12:00,38.3,31.0,30.15,South,171,1.0,3.0,74,0.00,,,0.00,weatherlink.com 1.10,2013-04-07 11:12:00,
2013-04-07 07:27:00,39.4,31.0,30.16,South,171,2.0,3.0,72,0.00,,,0.00,weatherlink.com 1.10,2013-04-07 11:27:00,
2013-04-07 07:42:00,40.2,31.0,30.15,South,169,2.0,4.0,71,0.00,,,0.00,weatherlink.com 1.10,2013-04-07 11:42:00,
2013-04-07 07:57:00,41.0,32.0,30.15,South,189,2.0,5.0,70,0.00,,,0.00,weatherlink.com 1.10,2013-04-07 11:57:00,
2013-04-07 08:12:00,42.1,33.0,30.15,South,172,3.0,6.0,69,0.00,,,0.00,weatherlink.com 1.10,2013-04-07 12:12:00,
2013-04-07 08:27:00,43.4,33.0,30.15,SSE,156,2.0,5.0,67,0.00,,,0.00,weatherlink.com 1.10,2013-04-07 12:27:00,
2013-04-07 08:42:00,44.9,34.0,30.14,South,173,4.0,6.0,65,0.00,,,0.00,weatherlink.com 1.10,2013-04-07 12:42:00,
2013-04-07 08:57:00,46.2,35.0,30.13,South,182,2.0,6.0,65,0.00,,,0.00,weatherlink.com 1.10,2013-04-07 12:57:00,
2013-04-07 09:12:00,48.7,36.0,30.13,SSE,153,3.0,9.0,62,0.00,,,0.00,weatherlink.com 1.10,2013-04-07 13:12:00,
2013-04-07 09:27:00,50.3,37.0,30.12,South,183,2.0,6.0,60,0.00,,,0.00,weatherlink.com 1.10,2013-04-07 13:27:00,
2013-04-07 09:42:00,52.0,37.0,30.12,SSW,205,6.0,8.0,57,0.00,,,0.00,weatherlink.com 1.10,2013-04-07 13:42:00,
2013-04-07 09:57:00,53.3,39.0,30.11,WSW,244,2.0,8.0,59,0.00,,,0.00,weatherlink.com 1.10,2013-04-07 13:57:00,
2013-04-07 10:12:00,55.4,40.0,30.11,West,262,2.0,9.0,57,0.00,,,0.00,weatherlink.com 1.10,2013-04-07 14:12:00,
2013-04-07 10:27:00,55.6,39.0,30.11,SSW,211,3.0,7.0,55,0.00,,,0.00,weatherlink.com 1.10,2013-04-07 14:27:00,
2013-04-07 10:42:00,56.7,40.0,30.10,NE,50,3.0,7.0,55,0.00,,,0.00,weatherlink.com 1.10,2013-04-07 14:42:00,
2013-04-07 10:57:00,57.6,40.0,30.09,ESE,111,3.0,9.0,53,0.00,,,0.00,weatherlink.com 1.10,2013-04-07 14:57:00,
2013-04-07 11:12:00,56.9,39.0,30.09,WSW,254,5.0,7.0,52,0.00,,,0.00,weatherlink.com 1.10,2013-04-07 15:12:00,
2013-04-07 11:27:00,58.6,41.0,30.08,WNW,282,2.0,9.0,53,0.00,,,0.00,weatherlink.com 1.10,2013-04-07 15:27:00,
2013-04-07 11:42:00,60.0,41.0,30.08,ENE,71,0.0,5.0,50,0.00,,,0.00,weatherlink.com 1.10,2013-04-07 15:42:00,
2013-04-07 11:57:00,59.8,40.0,30.08,South,182,1.0,7.0,48,0.00,,,0.00,weatherlink.com 1.10,2013-04-07 15:57:00,
2013-04-07 12:12:00,60.0,41.0,30.07,SW,227,2.0,5.0,50,0.00,,,0.00,weatherlink.com 1.10,2013-04-07 16:12:00,
2013-04-07 12:27:00,60.2,42.0,30.06,SSW,202,0.0,7.0,51,0.00,,,0.00,weatherlink.com 1.10,2013-04-07 16:27:00,
2013-04-07 12:43:00,61.5,41.0,30.05,West,261,4.0,6.0,48,0.00,,,0.00,weatherlink.com 1.10,2013-04-07 16:43:00,
2013-04-07 12:58:00,61.6,41.0,30.04,SW,220,3.0,8.0,47,0.00,,,0.00,weatherlink.com 1.10,2013-04-07 16:58:00,
2013-04-07 13:13:00,62.1,42.0,30.04,SW,214,1.0,6.0,48,0.00,,,0.00,weatherlink.com 1.10,2013-04-07 17:13:00,
2013-04-07 13:28:00,63.4,43.0,30.03,WNW,302,3.0,10.0,48,0.00,,,0.00,weatherlink.com 1.10,2013-04-07 17:28:00,
2013-04-07 13:43:00,63.6,43.0,30.02,West,259,2.0,7.0,47,0.00,,,0.00,weatherlink.com 1.10,2013-04-07 17:43:00,
2013-04-07 13:58:00,63.8,42.0,30.01,South,181,1.0,6.0,46,0.00,,,0.00,weatherlink.com 1.10,2013-04-07 17:58:00,
2013-04-07 14:13:00,64.3,43.0,30.00,South,185,2.0,10.0,46,0.00,,,0.00,weatherlink.com 1.10,2013-04-07 18:13:00,
2013-04-07 14:28:00,64.9,43.0,30.00,South,180,2.0,7.0,45,0.00,,,0.00,weatherlink.com 1.10,2013-04-07 18:28:00,
2013-04-07 14:43:00,65.8,43.0,29.99,SSE,156,7.0,9.0,44,0.00,,,0.00,weatherlink.com 1.10,2013-04-07 18:43:00,
2013-04-07 14:58:00,66.1,43.0,29.98,West,259,2.0,9.0,43,0.00,,,0.00,weatherlink.com 1.10,2013-04-07 18:58:00,
2013-04-07 15:13:00,66.2,43.0,29.97,South,177,4.0,5.0,43,0.00,,,0.00,weatherlink.com 1.10,2013-04-07 19:13:00,
2013-04-07 15:28:00,67.1,43.0,29.97,WSW,251,1.0,11.0,42,0.00,,,0.00,weatherlink.com 1.10,2013-04-07 19:28:00,
2013-04-07 15:43:00,68.7,44.0,29.96,South,185,3.0,7.0,41,0.00,,,0.00,weatherlink.com 1.10,2013-04-07 19:43:00,
2013-04-07 15:58:00,69.7,43.0,29.96,SSW,207,2.0,8.0,38,0.00,,,0.00,weatherlink.com 1.10,2013-04-07 19:58:00,
2013-04-07 16:13:00,70.3,44.0,29.95,SW,227,3.0,6.0,39,0.00,,,0.00,weatherlink.com 1.10,2013-04-07 20:13:00,
2013-04-07 16:28:00,70.7,44.0,29.95,SE,142,1.0,9.0,38,0.00,,,0.00,weatherlink.com 1.10,2013-04-07 20:28:00,
2013-04-07 16:43:00,70.1,43.0,29.95,South,190,2.0,6.0,37,0.00,,,0.00,weatherlink.com 1.10,2013-04-07 20:43:00,
2013-04-07 16:58:00,70.4,43.0,29.95,WSW,244,1.0,7.0,38,0.00,,,0.00,weatherlink.com 1.10,2013-04-07 20:58:00,
2013-04-07 17:13:00,70.2,44.0,29.95,SSW,209,1.0,7.0,39,0.00,,,0.00,weatherlink.com 1.10,2013-04-07 21:13:00,
2013-04-07 17:43:00,68.4,43.0,29.95,SSW,211,0.0,7.0,40,0.00,,,0.00,weatherlink.com 1.10,2013-04-07 21:43:00,
2013-04-07 17:58:00,67.9,44.0,29.95,SW,229,3.0,5.0,42,0.00,,,0.00,weatherlink.com 1.10,2013-04-07 21:58:00,
2013-04-07 18:13:00,67.5,43.0,29.95,East,89,0.0,4.0,41,0.00,,,0.00,weatherlink.com 1.10,2013-04-07 22:13:00,
2013-04-07 18:43:00,67.2,43.0,29.95,WSW,258,3.0,9.0,41,0.00,,,0.00,weatherlink.com 1.10,2013-04-07 22:43:00,
2013-04-07 19:13:00,66.5,44.0,29.95,South,191,0.0,7.0,44,0.00,,,0.00,weatherlink.com 1.10,2013-04-07 23:13:00,
2013-04-07 19:29:00,65.8,43.0,29.95,West,275,0.0,4.0,44,0.00,,,0.00,weatherlink.com 1.10,2013-04-07 23:29:00,
2013-04-07 20:13:00,64.1,43.0,29.96,West,280,0.0,2.0,47,0.00,,,0.00,weatherlink.com 1.10,2013-04-08 00:13:00,
2013-04-07 20:28:00,63.3,43.0,29.96,West,280,0.0,2.0,48,0.00,,,0.00,weatherlink.com 1.10,2013-04-08 00:28:00,
2013-04-07 20:43:00,63.1,43.0,29.96,SW,229,0.0,2.0,48,0.00,,,0.00,weatherlink.com 1.10,2013-04-08 00:43:00,
2013-04-07 21:14:00,62.6,43.0,29.98,WNW,282,0.0,2.0,49,0.00,,,0.00,weatherlink.com 1.10,2013-04-08 01:14:00,
2013-04-07 21:29:00,62.5,43.0,29.98,West,281,1.0,2.0,50,0.00,,,0.00,weatherlink.com 1.10,2013-04-08 01:29:00,
2013-04-07 21:43:00,62.4,43.0,29.98,West,274,0.0,2.0,50,0.00,,,0.00,weatherlink.com 1.10,2013-04-08 01:43:00,
2013-04-07 21:59:00,62.4,43.0,29.99,West,271,0.0,3.0,50,0.00,,,0.00,weatherlink.com 1.10,2013-04-08 01:59:00,
2013-04-07 22:29:00,62.3,44.0,29.99,SW,216,0.0,5.0,51,0.00,,,0.00,weatherlink.com 1.10,2013-04-08 02:29:00,
2013-04-07 22:58:00,63.4,44.0,29.99,West,278,0.0,5.0,49,0.00,,,0.00,weatherlink.com 1.10,2013-04-08 02:58:00,
2013-04-07 23:13:00,63.7,44.0,29.98,South,173,1.0,4.0,49,0.00,,,0.00,weatherlink.com 1.10,2013-04-08 03:13:00,
2013-04-07 23:44:00,63.5,44.0,29.99,WSW,240,0.0,4.0,49,0.00,,,0.00,weatherlink.com 1.10,2013-04-08 03:44:00,